WX9EOC Weather Reports


time (UTC)temp
C
wind
direction
speed
KPH
gust
KPH
rain 1hr
cm
rain 24hr
cm
rain mn
cm
humidity
%
barometer
mb
20260504050509 13 172 9.7 24.1 0.00 0.00 0.00 67 1008.5
20260504045511 13 231 11.3 19.3 0.00 0.00 0.00 67 1008.5
20260504045007 13 217 11.3 17.7 0.00 0.00 0.00 67 1008.5
20260504044527 13 226 11.3 17.7 0.00 0.00 0.00 66 1008.6
20260504044016 13 227 11.3 17.7 0.00 0.00 0.00 66 1008.5
20260504043510 13 215 11.3 17.7 0.00 0.00 0.00 65 1008.6
20260504043032 13 210 11.3 17.7 0.00 0.00 0.00 65 1008.6
20260504042512 13 242 8.0 17.7 0.00 0.00 0.00 65 1008.5
20260504042010 13 221 9.7 17.7 0.00 0.00 0.00 65 1008.6
20260504041533 13 227 8.0 17.7 0.00 0.00 0.00 65 1008.7
20260504041013 13 207 8.0 16.1 0.00 0.00 0.00 65 1008.6
20260504040507 13 218 9.7 14.5 0.00 0.00 0.00 64 1008.6
20260504040031 13 212 9.7 14.5 0.00 0.00 0.00 64 1008.6
20260504035512 14 229 6.4 19.3 0.00 0.00 0.00 64 1008.7
20260504035008 14 218 9.7 17.7 0.00 0.00 0.00 64 1008.7
20260504034524 14 214 9.7 17.7 0.00 0.00 0.00 63 1008.8
20260504034008 14 193 8.0 16.1 0.00 0.00 0.00 63 1008.8
20260504033512 14 219 6.4 16.1 0.00 0.00 0.00 63 1008.8
20260504033012 14 215 6.4 16.1 0.00 0.00 0.00 62 1008.9
20260504032510 14 211 6.4 27.4 0.00 0.00 0.00 62 1008.9
20260504032017 14 158 11.3 24.1 0.00 0.00 0.00 62 1008.9
20260504031518 14 205 8.0 16.1 0.00 0.00 0.00 62 1008.9
20260504031010 14 190 8.0 16.1 0.00 0.00 0.00 62 1009.0
20260504030512 14 171 8.0 16.1 0.00 0.00 0.00 62 1008.9
20260504030040 15 218 6.4 17.7 0.00 0.00 0.00 62 1009.0
20260504025512 15 193 8.0 14.5 0.00 0.00 0.00 62 1009.0
20260504025010 14 201 6.4 14.5 0.00 0.00 0.00 62 1009.0
20260504024531 14 222 6.4 14.5 0.00 0.00 0.00 62 1009.0
20260504024008 14 184 6.4 12.9 0.00 0.00 0.00 62 1009.0
20260504023513 14 216 4.8 12.9 0.00 0.00 0.00 63 1009.0
20260504023030 13 200 8.0 11.3 0.00 0.00 0.00 63 1008.9
20260504022507 13 177 8.0 9.7 0.00 0.00 0.00 64 1009.0
20260504022011 13 181 8.0 11.3 0.00 0.00 0.00 63 1008.9
20260504021533 14 185 8.0 11.3 0.00 0.00 0.00 62 1009.0
20260504021012 14 182 6.4 16.1 0.00 0.00 0.00 60 1008.9
20260504020511 15 160 8.0 14.5 0.00 0.00 0.00 60 1008.9
20260504020019 15 193 9.7 16.1 0.00 0.00 0.00 58 1008.8
20260504015512 15 167 9.7 14.5 0.00 0.00 0.00 58 1008.9
20260504015011 15 200 11.3 12.9 0.00 0.00 0.00 56 1008.8
20260504014539 15 190 8.0 12.9 0.00 0.00 0.00 56 1008.9
20260504014013 15 212 4.8 12.9 0.00 0.00 0.00 56 1008.9
20260504013508 16 214 8.0 11.3 0.00 0.00 0.00 56 1008.8
20260504013034 16 212 6.4 11.3 0.00 0.00 0.00 55 1008.8
20260504012510 16 191 4.8 11.3 0.00 0.00 0.00 55 1008.9
20260504012017 16 198 4.8 16.1 0.00 0.00 0.00 54 1008.8
20260504011532 16 205 8.0 14.5 0.00 0.00 0.00 54 1008.8
20260504011010 16 219 6.4 14.5 0.00 0.00 0.00 53 1008.7
20260504010507 16 197 8.0 14.5 0.00 0.00 0.00 52 1008.7
20260504010031 16 161 4.8 12.9 0.00 0.00 0.00 52 1008.8
20260504005510 17 219 6.4 9.7 0.00 0.00 0.00 51 1008.8
20260504005010 17 205 6.4 20.9 0.00 0.00 0.00 50 1008.8
20260504004534 17 187 9.7 20.9 0.00 0.00 0.00 50 1008.7
20260504004012 17 217 8.0 17.7 0.00 0.00 0.00 50 1008.8
20260504003511 17 209 9.7 20.9 0.00 0.00 0.00 48 1008.8
20260504003038 17 210 9.7 22.5 0.00 0.00 0.00 48 1008.8
20260504002509 18 252 12.9 25.7 0.00 0.00 0.00 48 1008.8
20260504002013 18 228 16.1 25.7 0.00 0.00 0.00 48 1008.8
20260504001533 18 226 12.9 25.7 0.00 0.00 0.00 47 1008.8
20260504001008 18 212 17.7 22.5 0.00 0.00 0.00 47 1008.9
20260504000514 18 217 12.9 20.9 0.00 0.00 0.00 47 1008.9
20260504000030 18 207 11.3 19.3 0.00 0.00 0.00 47 1008.9
20260503235508 18 208 14.5 19.3 0.00 0.00 0.00 47 1008.9
20260503235011 18 221 16.1 24.1 0.00 0.00 0.00 48 1008.9
20260503234543 18 225 16.1 27.4 0.00 0.00 0.00 47 1009.0
20260503234007 18 216 16.1 22.5 0.00 0.00 0.00 47 1009.1
20260503233509 18 219 14.5 27.4 0.00 0.00 0.00 48 1009.1
20260503233034 18 219 19.3 32.2 0.00 0.00 0.00 47 1009.1
20260503232513 18 206 16.1 32.2 0.00 0.00 0.00 46 1009.1
20260503232011 18 230 16.1 32.2 0.00 0.00 0.00 47 1009.2
20260503231532 18 205 19.3 32.2 0.00 0.00 0.00 47 1009.2
20260503231013 18 202 14.5 30.6 0.00 0.00 0.00 47 1009.3
20260503230516 17 221 16.1 30.6 0.00 0.00 0.00 49 1009.3
20260503230039 17 228 14.5 20.9 0.00 0.00 0.00 50 1009.3
20260503225516 17 261 14.5 30.6 0.00 0.00 0.00 50 1009.4
20260503225015 17 219 16.1 30.6 0.00 0.00 0.00 50 1009.6
20260503224527 17 233 19.3 32.2 0.00 0.00 0.00 50 1009.6
20260503224009 17 219 20.9 37.0 0.00 0.00 0.00 49 1009.7
20260503223514 17 212 24.1 37.0 0.00 0.00 0.00 47 1009.7
20260503223029 18 217 24.1 33.8 0.00 0.00 0.00 46 1009.7
20260503222510 18 165 17.7 40.2 0.00 0.00 0.00 47 1009.7
20260503222017 17 221 22.5 40.2 0.00 0.00 0.00 47 1009.9
20260503221532 17 230 27.4 40.2 0.00 0.00 0.00 48 1010.0
20260503221013 17 214 30.6 53.1 0.00 0.00 0.00 46 1009.9
20260503220517 18 212 33.8 46.7 0.00 0.00 0.00 46 1010.0
20260503220044 17 194 27.4 40.2 0.00 0.00 0.00 46 1010.0
20260503215517 17 228 24.1 40.2 0.00 0.00 0.00 47 1010.0
20260503215015 17 205 27.4 40.2 0.00 0.00 0.00 47 1010.0
20260503214531 17 207 24.1 40.2 0.00 0.00 0.00 47 1009.9
20260503214011 17 213 12.9 35.4 0.00 0.00 0.00 48 1009.8
20260503213514 16 214 20.9 41.8 0.00 0.00 0.00 47 1009.9
20260503213029 17 264 24.1 41.8 0.00 0.00 0.00 46 1010.0
20260503212510 17 212 25.7 41.8 0.00 0.00 0.00 45 1010.0
20260503212011 17 191 25.7 38.6 0.00 0.00 0.00 45 1010.2
20260503211531 17 212 27.4 45.1 0.00 0.00 0.00 46 1010.2
20260503211015 17 323 29.0 45.1 0.00 0.00 0.00 44 1010.3
20260503210511 17 227 27.4 46.7 0.00 0.00 0.00 45 1010.3
20260503210031 17 195 27.4 46.7 0.00 0.00 0.00 45 1010.4
20260503205514 17 212 19.3 41.8 0.00 0.00 0.00 47 1010.5
20260503205005 17 220 22.5 46.7 0.00 0.00 0.00 46 1010.5
20260503204506 17 218 27.4 46.7 0.00 0.00 0.00 47 1010.7
20260503204009 17 214 20.9 33.8 0.00 0.00 0.00 47 1010.7
20260503203504 16 199 19.3 43.5 0.00 0.00 0.00 46 1010.7
20260503203018 17 275 25.7 46.7 0.00 0.00 0.00 45 1010.7
20260503202506 17 216 20.9 45.1 0.00 0.00 0.00 47 1010.8
20260503202004 16 212 29.0 43.5 0.00 0.00 0.00 46 1010.9
20260503201508 16 224 20.9 43.5 0.00 0.00 0.00 45 1011.0
20260503201006 16 208 24.1 41.8 0.00 0.00 0.00 45 1011.1
20260503200505 16 236 20.9 41.8 0.00 0.00 0.00 45 1011.2
20260503200008 16 205 25.7 45.1 0.00 0.00 0.00 44 1011.3
20260503195503 16 204 20.9 45.1 0.00 0.00 0.00 43 1011.3
20260503195005 16 198 25.7 45.1 0.00 0.00 0.00 45 1011.3
20260503194507 16 213 27.4 37.0 0.00 0.00 0.00 44 1011.4
20260503194005 16 226 22.5 37.0 0.00 0.00 0.00 44 1011.4
20260503193508 16 203 17.7 37.0 0.00 0.00 0.00 43 1011.6
20260503193011 16 216 20.9 32.2 0.00 0.00 0.00 43 1011.6
20260503192505 16 207 16.1 38.6 0.00 0.00 0.00 43 1011.8
20260503192005 16 175 17.7 46.7 0.00 0.00 0.00 44 1012.0
20260503191518 16 219 32.2 45.1 0.00 0.00 0.00 45 1012.2
20260503191009 16 220 20.9 43.5 0.00 0.00 0.00 44 1012.1
20260503190504 16 220 24.1 38.6 0.00 0.00 0.00 43 1012.2
20260503190008 16 225 25.7 37.0 0.00 0.00 0.00 43 1012.4
20260503185503 16 205 17.7 25.7 0.00 0.00 0.00 44 1012.5
20260503185006 16 224 19.3 30.6 0.00 0.00 0.00 44 1012.6
20260503184509 16 219 19.3 37.0 0.00 0.00 0.00 46 1012.7
20260503184004 16 224 16.1 40.2 0.00 0.00 0.00 45 1012.7
20260503183505 16 221 22.5 40.2 0.00 0.00 0.00 45 1012.8
20260503183010 16 208 22.5 38.6 0.00 0.00 0.00 45 1013.0
20260503182507 16 207 29.0 38.6 0.00 0.00 0.00 45 1013.1
20260503182006 16 207 14.5 29.0 0.00 0.00 0.00 46 1013.2
20260503181510 16 238 14.5 29.0 0.00 0.00 0.00 47 1013.5
20260503181006 15 201 11.3 27.4 0.00 0.00 0.00 49 1013.7
20260503180504 15 220 19.3 24.1 0.00 0.00 0.00 52 1014.1
20260503180017 14 244 12.9 29.0 0.00 0.00 0.00 52 1014.2
20260503175503 14 231 16.1 25.7 0.00 0.00 0.00 52 1014.2
20260503175007 14 219 14.5 25.7 0.00 0.00 0.00 51 1014.3
20260503174527 14 229 14.5 27.4 0.00 0.00 0.00 51 1014.6
20260503174011 14 248 16.1 25.7 0.00 0.00 0.00 50 1014.7
20260503173512 14 217 16.1 32.2 0.00 0.00 0.00 51 1014.6
20260503173034 14 231 20.9 32.2 0.00 0.00 0.00 51 1014.6
20260503172514 14 217 12.9 33.8 0.00 0.00 0.00 52 1014.6
20260503172010 14 206 19.3 29.0 0.00 0.00 0.00 50 1014.7
20260503171532 14 245 19.3 29.0 0.00 0.00 0.00 50 1014.6
20260503171011 14 214 20.9 29.0 0.00 0.00 0.00 52 1014.6
20260503170510 14 212 19.3 32.2 0.00 0.00 0.00 52 1014.6
20260503150512 12 236 29.0 37.0 0.00 0.00 0.00 58 1016.1
20260503131010 10 210 19.3 30.6 0.00 0.00 0.00 60 1017.3
20260503130508 10 219 19.3 30.6 0.00 0.00 0.00 59 1017.4
20260503110510 6 242 11.3 19.3 0.00 0.00 0.00 67 1016.8
20260503090508 5 206 11.3 19.3 0.00 0.00 0.00 65 1017.1
20260503081532 6 221 11.3 16.1 0.00 0.00 0.00 63 1017.1
20260503081009 5 223 9.7 16.1 0.00 0.00 0.00 64 1017.2
20260503080511 6 240 9.7 14.5 0.00 0.00 0.00 63 1017.3